Regional Weather Roundup
Issued by NWS Midland/Odessa, TX

Skip options and go directly to product.
Home | Oldest Version | Previous Version | Current Version | All | Text Only | Save Text | Print | Product List | Glossary On

Skip product version selection by date and time.   
559
ASUS44 KMAF 010410
RWRMAF
MIDLAND AREA WEATHER ROUNDUP
NATIONAL WEATHER SERVICE MIDLAND TX
1000 PM CST SAT FEB 28 2015

...IN SOUTHWEST TEXAS AND SOUTHEAST NEW MEXICO...

CITY           SKY/WX    TMP DP  RH WIND       PRES   REMARKS
ALPINE         CLEAR     32  31  96 SW3       30.14R
ANDREWS        FOG       29  29 100 E6        30.18R VSB 1   WCI  23
ARTESIA        CLOUDY    28  28 100 S12       30.13R FOG     WCI  18
BIG SPRING     CLOUDY    29  28  93 NE8       30.23R WCI  22
CARLSBAD       CLOUDY    31  28  89 SE12      30.13R FOG     WCI  22
DRYDEN           N/A     39  38  96 E6        30.15S WCI  35
FORT STOCKTON  CLOUDY    35  34  96 E9        30.13R WCI  28
GUAD PASS      NOT AVBL
HOBBS          FOG       28  28 100 S7        30.14R VSB 1/2 WCI  21
MARFA          CLEAR     37  30  75 N5        30.09R WCI  34
MIDLAND AIRPK  CLOUDY    32  32 100 E6        30.19R FOG     WCI  26
MIDLAND INTL   CLOUDY    31  30  96 E9        30.18R FOG     WCI  23
ODESSA         CLOUDY    31  29  92 E10       30.17R FOG     WCI  22
PECOS          CLOUDY    34  33  96 N6        30.17R FOG     WCI  29
PRESIDIO       FAIR      53  36  51 N8        30.01R
SEMINOLE       CLOUDY   N/A N/A N/A S5        30.17R HAZE
SNYDER         CLOUDY    26  25  96 E6        30.24R FOG     WCI  19
WINK           CLOUDY    34  30  85 E6        30.16R WCI  29
$$
...OTHER STATIONS IN TEXAS...

CITY           SKY/WX    TMP DP  RH WIND       PRES   REMARKS
ABILENE        CLOUDY    28  26  92 NE6       30.28R FOG     WCI  22
AMARILLO       CLOUDY    22  20  92 S6        30.15R WCI  14
AUSTIN         LGT RAIN  35  35 100 N10       30.28R FOG     WCI  27
BROWNSVILLE    LGT RAIN  51  50  96 NW9       30.17S
CORPUS CHRISTI LGT RAIN  51  50  96 N13       30.17R FOG
DALLAS FTW     FRZ DRZL  31  29  92 NE7       30.35R FOG     WCI  24
DEL RIO        CLOUDY    43  42  97 SE5       30.21S FOG
EL PASO        PTCLDY    65  31  28 W14       29.96R
HOUSTON INT    CLOUDY    54  50  86 NE5       30.24S
LUBBOCK        FOG       23  22  96 SE7       30.16R VSB 1/4 WCI  15
SAN ANGELO     CLOUDY    31  30  96 E9        30.23S FOG     WCI  23
SAN ANTONIO    DRIZZLE   39  37  92 NE12      30.23R FOG     WCI  32
WACO           CLOUDY    33  31  92 N8        30.33R FOG     WCI  26
WICHITA FALLS  NOT AVBL
$$
...OTHER LOCATIONS IN NEW MEXICO...

CITY           SKY/WX    TMP DP  RH WIND       PRES   REMARKS
ALAMAGORDO     PTCLDY    46  28  49 MISG      29.98R
ALBUQUERQUE    MOCLDY    33  29  85 NW8       29.98R WCI  26
CANNON AFB     CLOUDY    27  26  96 S10       30.07R WCI  17
CLOVIS         CLOUDY    27  25  93 S12       30.09R WCI  16
HOLLOMAN AFB   PTCLDY    47  30  51 N3        29.96R
ROSWELL        CLOUDY    29  25  85 S10       30.12R WCI  20
RUIDOSO        PTCLDY    41  28  60 S8        30.05R WCI  36
SANTA FE       LGT RAIN  34  32  92 CALM      29.96R
TRUTH OR CONSE PTCLDY    56  37  49 S8        29.94R
TUCUMCARI      CLOUDY    26  22  84 SW8       30.07S WCI  18
$$

USA.gov is the U.S. government's official web portal to all federal, state and local government web resources and services.